Location: Lincoln Park
(32.7042°N, 117.0895°W)
Time: 17:35:53
(UTC+00:00)

Cosmos 2346 Rocket - Pass Details

Date: 26 June 2022
Orbit: 937 x 979 km, 82.9° (Epoch: 09 August)

Event Time Altitude Azimuth Distance (km) Brightness Sun altitude
Rises 12:06:10 0° 192° (SSW) 3,580 7.0 -7.3°
Reaches altitude 10° 12:08:39 10° 195° (SSW) 2,640 6.3 -6.9°
Maximum altitude 12:14:38 67° 277° (W) 1,017 4.5 -5.9°
Drops below altitude 10° 12:20:42 10° 360° (N) 2,672 7.3 -4.8°
Sets 12:23:14 0° 3° (N) 3,626 8.0 -4.3°
